Time,TemperatureF,DewpointF,PressureIn,WindDirection,WindDirectionDegrees,WindSpeedMPH,WindSpeedGustMPH,Humidity,HourlyPrecipIn,Conditions,Clouds,dailyrainin,SolarRadiationWatts/m^2,SoftwareType,DateUTC
2013-04-27 00:00:00,43.9,27.0,30.07,ENE,72,0.0,-999.0,53,-99.99,,,0.00,0.0,cwc,2013-04-27 06:00:00,
2013-04-27 00:05:00,43.3,26.4,30.08,ENE,72,0.0,-999.0,53,-99.99,,,0.00,0.0,cwc,2013-04-27 06:05:00,
2013-04-27 00:10:00,43.1,26.5,30.08,ENE,73,0.0,-999.0,54,-99.99,,,0.00,0.0,cwc,2013-04-27 06:10:00,
2013-04-27 00:15:00,42.6,27.8,30.08,ENE,73,0.0,-999.0,59,-99.99,,,0.00,0.0,cwc,2013-04-27 06:15:00,
2013-04-27 00:20:00,42.3,28.3,30.06,ENE,73,0.0,-999.0,61,-99.99,,,0.00,0.0,cwc,2013-04-27 06:20:00,
2013-04-27 00:25:00,42.3,28.3,30.06,ENE,73,0.0,-999.0,61,-99.99,,,0.00,0.0,cwc,2013-04-27 06:25:00,
2013-04-27 00:30:00,41.9,26.1,30.06,ENE,73,0.0,-999.0,56,-99.99,,,0.00,0.0,cwc,2013-04-27 06:30:00,
2013-04-27 00:35:00,41.5,26.4,30.07,ENE,73,0.0,-999.0,58,-99.99,,,0.00,0.0,cwc,2013-04-27 06:35:00,
2013-04-27 00:40:00,41.6,28.3,30.07,ENE,73,0.0,-999.0,63,-99.99,,,0.00,0.0,cwc,2013-04-27 06:40:00,
2013-04-27 00:45:00,41.1,26.0,30.07,ENE,73,0.0,-999.0,58,-99.99,,,0.00,0.0,cwc,2013-04-27 06:45:00,
2013-04-27 00:50:00,40.8,25.7,30.08,ENE,73,0.0,-999.0,58,-99.99,,,0.00,0.0,cwc,2013-04-27 06:50:00,
2013-04-27 00:55:00,40.6,26.2,30.08,ENE,73,0.0,-999.0,60,-99.99,,,0.00,0.0,cwc,2013-04-27 06:55:00,
2013-04-27 01:00:00,40.5,26.1,30.08,ENE,73,0.0,-999.0,60,-99.99,,,0.00,0.0,cwc,2013-04-27 07:00:00,
2013-04-27 01:05:00,40.5,26.5,30.08,ENE,73,0.0,-999.0,61,-99.99,,,0.00,0.0,cwc,2013-04-27 07:05:00,
2013-04-27 01:10:00,40.5,26.5,30.08,ENE,73,0.0,-999.0,61,-99.99,,,0.00,0.0,cwc,2013-04-27 07:10:00,
2013-04-27 01:15:00,40.8,28.2,30.08,ENE,73,0.0,-999.0,65,-99.99,,,0.00,0.0,cwc,2013-04-27 07:15:00,
2013-04-27 01:20:00,40.6,26.6,30.08,ENE,73,0.0,-999.0,61,-99.99,,,0.00,0.0,cwc,2013-04-27 07:20:00,
2013-04-27 01:25:00,40.5,26.5,30.08,ENE,73,0.0,-999.0,61,-99.99,,,0.00,0.0,cwc,2013-04-27 07:25:00,
2013-04-27 01:30:00,40.1,25.3,30.08,ENE,73,0.0,-999.0,59,-99.99,,,0.00,0.0,cwc,2013-04-27 07:30:00,
2013-04-27 01:35:00,39.9,25.5,30.10,ENE,73,0.0,-999.0,60,-99.99,,,0.00,0.0,cwc,2013-04-27 07:35:00,
2013-04-27 01:40:00,39.6,24.8,30.10,ENE,73,0.0,-999.0,59,-99.99,,,0.00,0.0,cwc,2013-04-27 07:40:00,
2013-04-27 01:45:00,39.9,27.3,30.10,ENE,73,0.0,-999.0,65,-99.99,,,0.00,0.0,cwc,2013-04-27 07:45:00,
2013-04-27 01:50:00,39.8,27.6,30.06,ENE,73,0.0,-999.0,66,-99.99,,,0.00,0.0,cwc,2013-04-27 07:50:00,
2013-04-27 01:55:00,38.9,24.5,30.06,ENE,73,0.0,-999.0,60,-99.99,,,0.00,0.0,cwc,2013-04-27 07:55:00,
2013-04-27 02:00:00,38.8,26.2,30.06,ENE,73,4.0,-999.0,65,-99.99,,,0.00,0.0,cwc,2013-04-27 08:00:00,
2013-04-27 02:05:00,38.3,23.9,30.09,ENE,73,0.0,-999.0,60,-99.99,,,0.00,0.0,cwc,2013-04-27 08:05:00,
2013-04-27 02:10:00,38.2,23.8,30.09,ENE,73,0.0,-999.0,60,-99.99,,,0.00,0.0,cwc,2013-04-27 08:10:00,
2013-04-27 02:15:00,37.9,23.5,30.09,ENE,73,0.0,-999.0,60,-99.99,,,0.00,0.0,cwc,2013-04-27 08:15:00,
2013-04-27 02:20:00,37.6,24.3,30.08,ENE,73,0.0,-999.0,63,-99.99,,,0.00,0.0,cwc,2013-04-27 08:20:00,
2013-04-27 02:25:00,37.3,23.6,30.08,ENE,73,0.0,-999.0,62,-99.99,,,0.00,0.0,cwc,2013-04-27 08:25:00,
2013-04-27 02:30:00,37.0,23.7,30.08,ENE,73,0.0,-999.0,63,-99.99,,,0.00,0.0,cwc,2013-04-27 08:30:00,
2013-04-27 02:35:00,36.9,23.9,30.09,ENE,73,0.0,-999.0,64,-99.99,,,0.00,0.0,cwc,2013-04-27 08:35:00,
2013-04-27 02:40:00,36.6,23.6,30.09,ENE,73,0.0,-999.0,64,-99.99,,,0.00,0.0,cwc,2013-04-27 08:40:00,
2013-04-27 02:45:00,36.3,23.0,30.09,ENE,73,4.0,-999.0,63,-99.99,,,0.00,0.0,cwc,2013-04-27 08:45:00,
2013-04-27 02:50:00,36.6,24.4,30.10,ENE,73,0.0,-999.0,66,-99.99,,,0.00,0.0,cwc,2013-04-27 08:50:00,
2013-04-27 02:55:00,36.5,23.5,30.10,ENE,73,0.0,-999.0,64,-99.99,,,0.00,0.0,cwc,2013-04-27 08:55:00,
2013-04-27 03:00:00,36.2,23.2,30.10,ENE,73,0.0,-999.0,64,-99.99,,,0.00,0.0,cwc,2013-04-27 09:00:00,
2013-04-27 03:05:00,35.5,23.6,30.10,ENE,73,0.0,-999.0,67,-99.99,,,0.00,0.0,cwc,2013-04-27 09:05:00,
2013-04-27 03:10:00,35.8,23.9,30.10,ENE,73,0.0,-999.0,67,-99.99,,,0.00,0.0,cwc,2013-04-27 09:10:00,
2013-04-27 03:15:00,35.5,23.6,30.10,ENE,73,0.0,-999.0,67,-99.99,,,0.00,0.0,cwc,2013-04-27 09:15:00,
2013-04-27 03:20:00,35.3,23.8,30.14,ENE,73,0.0,-999.0,68,-99.99,,,0.00,0.0,cwc,2013-04-27 09:20:00,
2013-04-27 03:25:00,35.2,23.7,30.14,ENE,73,0.0,-999.0,68,-99.99,,,0.00,0.0,cwc,2013-04-27 09:25:00,
2013-04-27 03:30:00,34.9,23.4,30.14,ENE,73,0.0,-999.0,68,-99.99,,,0.00,0.0,cwc,2013-04-27 09:30:00,
2013-04-27 03:35:00,34.7,24.3,30.16,ENE,73,0.0,-999.0,71,-99.99,,,0.00,0.0,cwc,2013-04-27 09:35:00,
2013-04-27 03:40:00,34.4,24.0,30.16,ENE,73,0.0,-999.0,71,-99.99,,,0.00,0.0,cwc,2013-04-27 09:40:00,
2013-04-27 03:45:00,36.6,23.6,30.16,ENE,73,0.0,-999.0,64,-99.99,,,0.00,0.0,cwc,2013-04-27 09:45:00,
2013-04-27 03:50:00,35.5,27.9,30.15,ENE,73,0.0,-999.0,79,-99.99,,,0.00,0.0,cwc,2013-04-27 09:50:00,
2013-04-27 03:55:00,34.7,25.3,30.15,ENE,73,0.0,-999.0,74,-99.99,,,0.00,0.0,cwc,2013-04-27 09:55:00,
2013-04-27 04:00:00,35.8,25.4,30.15,ENE,73,0.0,-999.0,71,-99.99,,,0.00,0.0,cwc,2013-04-27 10:00:00,
2013-04-27 04:05:00,34.6,24.5,30.15,ENE,73,0.0,-999.0,72,-99.99,,,0.00,0.0,cwc,2013-04-27 10:05:00,
2013-04-27 04:10:00,36.2,27.6,30.15,ENE,73,0.0,-999.0,76,-99.99,,,0.00,0.0,cwc,2013-04-27 10:10:00,
2013-04-27 04:15:00,36.3,30.2,30.15,ENE,73,0.0,-999.0,83,-99.99,,,0.00,0.0,cwc,2013-04-27 10:15:00,
2013-04-27 04:20:00,34.7,26.4,30.14,ENE,73,0.0,-999.0,77,-99.99,,,0.00,0.0,cwc,2013-04-27 10:20:00,
2013-04-27 04:25:00,34.6,27.4,30.14,ENE,73,0.0,-999.0,80,-99.99,,,0.00,0.0,cwc,2013-04-27 10:25:00,
2013-04-27 04:30:00,34.0,25.4,30.14,ENE,73,0.0,-999.0,76,-99.99,,,0.00,0.0,cwc,2013-04-27 10:30:00,
2013-04-27 04:35:00,33.7,25.1,30.16,ENE,73,0.0,-999.0,76,-99.99,,,0.00,0.0,cwc,2013-04-27 10:35:00,
2013-04-27 04:40:00,33.7,25.1,30.16,ENE,73,0.0,-999.0,76,-99.99,,,0.00,0.0,cwc,2013-04-27 10:40:00,
2013-04-27 04:45:00,33.2,24.6,30.16,ENE,73,0.0,-999.0,76,-99.99,,,0.00,0.0,cwc,2013-04-27 10:45:00,
2013-04-27 04:50:00,33.1,24.8,30.17,ENE,73,0.0,-999.0,77,-99.99,,,0.00,0.0,cwc,2013-04-27 10:50:00,
2013-04-27 04:55:00,32.5,24.6,30.17,ENE,73,0.0,-999.0,78,-99.99,,,0.00,0.0,cwc,2013-04-27 10:55:00,
2013-04-27 05:00:00,32.4,23.8,30.17,ENE,73,0.0,-999.0,76,-99.99,,,0.00,0.0,cwc,2013-04-27 11:00:00,
2013-04-27 05:05:00,34.1,26.2,30.17,ENE,73,0.0,-999.0,78,-99.99,,,0.00,0.0,cwc,2013-04-27 11:05:00,
2013-04-27 05:10:00,32.4,25.6,30.17,ENE,73,0.0,-999.0,81,-99.99,,,0.00,0.0,cwc,2013-04-27 11:10:00,
2013-04-27 05:15:00,32.2,25.4,30.17,ENE,73,0.0,-999.0,81,-99.99,,,0.00,0.0,cwc,2013-04-27 11:15:00,
2013-04-27 05:20:00,33.2,26.7,30.19,ENE,73,0.0,-999.0,82,-99.99,,,0.00,0.0,cwc,2013-04-27 11:20:00,
2013-04-27 05:25:00,32.9,25.7,30.19,ENE,73,0.0,-999.0,80,-99.99,,,0.00,0.0,cwc,2013-04-27 11:25:00,
2013-04-27 05:30:00,32.5,24.9,30.19,ENE,73,0.0,-999.0,79,-99.99,,,0.00,0.0,cwc,2013-04-27 11:30:00,
2013-04-27 05:35:00,33.2,28.5,30.19,ENE,73,0.0,-999.0,87,-99.99,,,0.00,0.0,cwc,2013-04-27 11:35:00,
2013-04-27 05:40:00,32.4,25.6,30.19,ENE,73,0.0,-999.0,81,-99.99,,,0.00,0.0,cwc,2013-04-27 11:40:00,
2013-04-27 05:45:00,32.8,27.8,30.19,ENE,73,0.0,-999.0,86,-99.99,,,0.00,0.0,cwc,2013-04-27 11:45:00,
2013-04-27 05:50:00,32.1,25.3,30.19,ENE,73,0.0,-999.0,81,-99.99,,,0.00,0.0,cwc,2013-04-27 11:50:00,
2013-04-27 05:55:00,31.9,25.1,30.19,ENE,73,0.0,-999.0,81,-99.99,,,0.00,0.0,cwc,2013-04-27 11:55:00,
2013-04-27 06:00:00,31.6,24.8,30.19,ENE,73,0.0,-999.0,81,-99.99,,,0.00,0.0,cwc,2013-04-27 12:00:00,
2013-04-27 06:05:00,31.3,24.1,30.20,ENE,73,0.0,-999.0,80,-99.99,,,0.00,0.0,cwc,2013-04-27 12:05:00,
2013-04-27 06:10:00,31.2,24.4,30.20,ENE,73,0.0,-999.0,81,-99.99,,,0.00,0.0,cwc,2013-04-27 12:10:00,
2013-04-27 06:15:00,30.9,24.4,30.20,ENE,73,0.0,-999.0,82,-99.99,,,0.00,0.0,cwc,2013-04-27 12:15:00,
2013-04-27 06:20:00,30.7,24.9,30.21,ENE,73,0.0,-999.0,84,-99.99,,,0.00,0.0,cwc,2013-04-27 12:20:00,
2013-04-27 06:25:00,30.6,24.8,30.21,East,99,0.0,-999.0,84,-99.99,,,0.00,0.0,cwc,2013-04-27 12:25:00,
2013-04-27 06:30:00,30.7,25.3,30.21,East,99,0.0,-999.0,85,-99.99,,,0.00,0.0,cwc,2013-04-27 12:30:00,
2013-04-27 06:35:00,32.4,26.3,30.22,East,99,0.0,-999.0,83,-99.99,,,0.00,0.0,cwc,2013-04-27 12:35:00,
2013-04-27 06:40:00,31.8,27.5,30.22,East,99,0.0,-999.0,88,-99.99,,,0.00,0.0,cwc,2013-04-27 12:40:00,
2013-04-27 06:45:00,31.5,26.8,30.22,East,99,0.0,-999.0,87,-99.99,,,0.00,0.0,cwc,2013-04-27 12:45:00,
2013-04-27 06:50:00,31.8,26.8,30.20,East,99,0.0,-999.0,86,-99.99,,,0.00,0.0,cwc,2013-04-27 12:50:00,
2013-04-27 06:55:00,31.9,31.2,30.20,East,99,0.0,-999.0,98,-99.99,,,0.00,0.0,cwc,2013-04-27 12:55:00,
2013-04-27 07:00:00,33.7,32.3,30.20,East,99,0.0,-999.0,96,-99.99,,,0.00,0.0,cwc,2013-04-27 13:00:00,
2013-04-27 07:05:00,34.4,31.2,30.19,East,99,0.0,-999.0,91,-99.99,,,0.00,0.0,cwc,2013-04-27 13:05:00,
2013-04-27 07:10:00,34.1,30.9,30.19,East,99,0.0,-999.0,91,-99.99,,,0.00,0.0,cwc,2013-04-27 13:10:00,
2013-04-27 07:15:00,34.1,30.5,30.19,East,99,0.0,-999.0,90,-99.99,,,0.00,0.0,cwc,2013-04-27 13:15:00,
2013-04-27 07:20:00,34.6,30.6,30.21,East,99,0.0,-999.0,89,-99.99,,,0.00,0.0,cwc,2013-04-27 13:20:00,
2013-04-27 07:25:00,35.5,31.2,30.21,East,99,0.0,-999.0,88,-99.99,,,0.00,0.0,cwc,2013-04-27 13:25:00,
2013-04-27 07:30:00,37.5,37.5,30.21,East,99,0.0,-999.0,100,-99.99,,,0.00,0.0,cwc,2013-04-27 13:30:00,
2013-04-27 07:35:00,37.9,35.4,30.18,East,99,0.0,-999.0,93,-99.99,,,0.00,0.0,cwc,2013-04-27 13:35:00,
2013-04-27 07:40:00,40.3,32.4,30.18,East,99,0.0,-999.0,78,-99.99,,,0.00,0.0,cwc,2013-04-27 13:40:00,
2013-04-27 07:50:00,40.8,30.0,30.18,East,99,0.0,-999.0,70,-99.99,,,0.00,0.0,cwc,2013-04-27 13:50:00,
2013-04-27 07:55:00,41.8,29.6,30.18,East,100,0.0,-999.0,66,-99.99,,,0.00,0.0,cwc,2013-04-27 13:55:00,
2013-04-27 08:00:00,42.9,29.6,30.18,East,100,0.0,-999.0,63,-99.99,,,0.00,0.0,cwc,2013-04-27 14:00:00,
2013-04-27 08:05:00,44.3,30.6,30.16,NE,35,7.0,-999.0,62,-99.99,,,0.00,0.0,cwc,2013-04-27 14:05:00,
2013-04-27 08:10:00,44.3,29.2,30.16,North,359,0.0,-999.0,58,-99.99,,,0.00,0.0,cwc,2013-04-27 14:10:00,
2013-04-27 08:15:00,45.2,29.7,30.16,North,357,0.0,-999.0,57,-99.99,,,0.00,0.0,cwc,2013-04-27 14:15:00,
2013-04-27 08:20:00,46.5,30.3,30.17,North,357,0.0,-999.0,55,-99.99,,,0.00,0.0,cwc,2013-04-27 14:20:00,
2013-04-27 08:25:00,46.7,29.4,30.17,North,0,0.0,-999.0,52,-99.99,,,0.00,0.0,cwc,2013-04-27 14:25:00,
2013-04-27 08:30:00,48.3,33.2,30.17,North,0,0.0,-999.0,58,-99.99,,,0.00,0.0,cwc,2013-04-27 14:30:00,
2013-04-27 08:35:00,48.9,29.1,30.14,North,0,0.0,-999.0,45,-99.99,,,0.00,0.0,cwc,2013-04-27 14:35:00,
2013-04-27 08:40:00,49.1,28.9,30.14,North,0,0.0,-999.0,44,-99.99,,,0.00,0.0,cwc,2013-04-27 14:40:00,
2013-04-27 08:45:00,49.9,29.4,30.14,NE,45,0.0,-999.0,43,-99.99,,,0.00,0.0,cwc,2013-04-27 14:45:00,
2013-04-27 08:50:00,50.7,29.8,30.13,NE,45,0.0,-999.0,42,-99.99,,,0.00,0.0,cwc,2013-04-27 14:50:00,
2013-04-27 08:55:00,51.0,30.5,30.13,NE,45,6.0,-999.0,43,-99.99,,,0.00,0.0,cwc,2013-04-27 14:55:00,
2013-04-27 09:00:00,52.0,30.8,30.13,NE,45,0.0,-999.0,41,-99.99,,,0.00,0.0,cwc,2013-04-27 15:00:00,
2013-04-27 09:05:00,52.0,30.4,30.11,NE,48,0.0,-999.0,40,-99.99,,,0.00,0.0,cwc,2013-04-27 15:05:00,
2013-04-27 09:10:00,52.0,30.4,30.11,NE,38,2.0,-999.0,40,-99.99,,,0.00,0.0,cwc,2013-04-27 15:10:00,
2013-04-27 09:15:00,52.8,30.8,30.11,NNE,32,0.0,-999.0,39,-99.99,,,0.00,0.0,cwc,2013-04-27 15:15:00,
2013-04-27 09:20:00,53.3,30.3,30.11,North,3,0.0,-999.0,36,-99.99,,,0.00,0.0,cwc,2013-04-27 15:20:00,
2013-04-27 09:25:00,53.8,30.8,30.11,NNE,21,0.0,-999.0,36,-99.99,,,0.00,0.0,cwc,2013-04-27 15:25:00,
2013-04-27 09:30:00,54.8,31.4,30.11,NNE,21,0.0,-999.0,35,-99.99,,,0.00,0.0,cwc,2013-04-27 15:30:00,
2013-04-27 09:35:00,55.1,31.3,30.10,NNE,21,0.0,-999.0,34,-99.99,,,0.00,0.0,cwc,2013-04-27 15:35:00,
2013-04-27 09:40:00,56.5,32.4,30.10,NNE,21,0.0,-999.0,33,-99.99,,,0.00,0.0,cwc,2013-04-27 15:40:00,
2013-04-27 09:45:00,56.6,32.1,30.10,NNE,31,0.0,-999.0,32,-99.99,,,0.00,0.0,cwc,2013-04-27 15:45:00,
2013-04-27 09:50:00,57.3,32.8,30.08,NNE,31,4.0,-999.0,32,-99.99,,,0.00,0.0,cwc,2013-04-27 15:50:00,
2013-04-27 09:55:00,57.0,31.8,30.08,East,89,0.0,-999.0,30,-99.99,,,0.00,0.0,cwc,2013-04-27 15:55:00,
2013-04-27 10:00:00,58.1,32.9,30.08,SW,229,0.0,-999.0,30,-99.99,,,0.00,0.0,cwc,2013-04-27 16:00:00,
2013-04-27 10:05:00,60.5,34.6,30.07,SSE,154,0.0,-999.0,28,-99.99,,,0.00,0.0,cwc,2013-04-27 16:05:00,
2013-04-27 10:10:00,61.5,35.6,30.07,SSE,154,0.0,-999.0,28,-99.99,,,0.00,0.0,cwc,2013-04-27 16:10:00,
2013-04-27 10:15:00,62.6,36.0,30.07,West,281,0.0,-999.0,26,-99.99,,,0.00,0.0,cwc,2013-04-27 16:15:00,
2013-04-27 10:20:00,62.3,35.3,30.05,West,277,4.0,-999.0,25,-99.99,,,0.00,0.0,cwc,2013-04-27 16:20:00,
2013-04-27 10:25:00,62.7,36.1,30.05,SW,230,0.0,-999.0,26,-99.99,,,0.00,0.0,cwc,2013-04-27 16:25:00,
2013-04-27 10:30:00,63.1,36.1,30.05,NNW,340,2.0,-999.0,25,-99.99,,,0.00,0.0,cwc,2013-04-27 16:30:00,
2013-04-27 10:35:00,62.9,35.9,30.05,North,353,6.0,-999.0,25,-99.99,,,0.00,0.0,cwc,2013-04-27 16:35:00,
2013-04-27 10:40:00,61.6,35.0,30.05,North,8,6.0,-999.0,26,-99.99,,,0.00,0.0,cwc,2013-04-27 16:40:00,
2013-04-27 10:45:00,62.0,35.0,30.05,NNE,25,0.0,-999.0,25,-99.99,,,0.00,0.0,cwc,2013-04-27 16:45:00,
2013-04-27 10:50:00,62.0,35.0,30.05,NE,45,0.0,-999.0,25,-99.99,,,0.00,0.0,cwc,2013-04-27 16:50:00,
2013-04-27 10:55:00,63.1,35.4,30.05,NE,45,0.0,-999.0,23,-99.99,,,0.00,0.0,cwc,2013-04-27 16:55:00,
2013-04-27 11:00:00,64.2,36.1,30.05,NE,47,0.0,-999.0,22,-99.99,,,0.00,0.0,cwc,2013-04-27 17:00:00,
2013-04-27 11:05:00,64.3,35.9,30.03,ENE,64,1.0,-999.0,21,-99.99,,,0.00,0.0,cwc,2013-04-27 17:05:00,
2013-04-27 11:10:00,64.8,36.4,30.03,SSE,152,0.0,-999.0,21,-99.99,,,0.00,0.0,cwc,2013-04-27 17:10:00,
2013-04-27 11:15:00,65.3,36.5,30.03,South,176,6.0,-999.0,20,-99.99,,,0.00,0.0,cwc,2013-04-27 17:15:00,
2013-04-27 11:20:00,65.0,36.6,30.05,SSE,167,6.0,-999.0,21,-99.99,,,0.00,0.0,cwc,2013-04-27 17:20:00,
2013-04-27 11:25:00,66.0,37.6,30.05,South,174,0.0,-999.0,21,-99.99,,,0.00,0.0,cwc,2013-04-27 17:25:00,
2013-04-27 11:30:00,66.3,37.9,30.05,SSW,196,4.0,-999.0,21,-99.99,,,0.00,0.0,cwc,2013-04-27 17:30:00,
2013-04-27 11:35:00,66.3,37.5,30.03,South,179,1.0,-999.0,20,-99.99,,,0.00,0.0,cwc,2013-04-27 17:35:00,
2013-04-27 11:40:00,66.6,37.8,30.03,SSW,212,4.0,-999.0,20,-99.99,,,0.00,0.0,cwc,2013-04-27 17:40:00,
2013-04-27 11:45:00,66.6,37.4,30.03,West,261,0.0,-999.0,19,-99.99,,,0.00,0.0,cwc,2013-04-27 17:45:00,
2013-04-27 11:50:00,68.1,38.6,30.02,West,261,0.0,-999.0,18,-99.99,,,0.00,0.0,cwc,2013-04-27 17:50:00,
2013-04-27 11:55:00,67.6,38.4,30.02,SW,227,4.0,-999.0,19,-99.99,,,0.00,0.0,cwc,2013-04-27 17:55:00,
2013-04-27 12:00:00,67.6,38.1,30.02,SSE,162,0.0,-999.0,18,-99.99,,,0.00,0.0,cwc,2013-04-27 18:00:00,
2013-04-27 12:05:00,68.8,38.9,30.00,NW,313,9.0,-999.0,17,-99.99,,,0.00,0.0,cwc,2013-04-27 18:05:00,
2013-04-27 12:10:00,68.3,38.1,30.00,North,357,1.0,-999.0,16,-99.99,,,0.00,0.0,cwc,2013-04-27 18:10:00,
2013-04-27 12:15:00,68.6,37.3,30.00,West,261,4.0,-999.0,13,-99.99,,,0.00,0.0,cwc,2013-04-27 18:15:00,
2013-04-27 12:20:00,69.1,38.1,30.02,NNW,344,6.0,-999.0,14,-99.99,,,0.00,0.0,cwc,2013-04-27 18:20:00,
2013-04-27 12:25:00,68.8,37.1,30.02,NNW,328,6.0,-999.0,12,-99.99,,,0.00,0.0,cwc,2013-04-27 18:25:00,
2013-04-27 12:30:00,68.9,37.6,30.02,WSW,244,4.0,-999.0,13,-99.99,,,0.00,0.0,cwc,2013-04-27 18:30:00,
2013-04-27 12:35:00,70.3,39.3,30.01,West,281,0.0,-999.0,14,-99.99,,,0.00,0.0,cwc,2013-04-27 18:35:00,
2013-04-27 12:40:00,70.3,38.6,30.01,WNW,295,7.0,-999.0,12,-99.99,,,0.00,0.0,cwc,2013-04-27 18:40:00,
2013-04-27 12:45:00,70.1,38.1,30.01,NNW,336,1.0,-999.0,11,-99.99,,,0.00,0.0,cwc,2013-04-27 18:45:00,
2013-04-27 12:50:00,70.1,38.8,29.99,NW,311,1.0,-999.0,13,-99.99,,,0.00,0.0,cwc,2013-04-27 18:50:00,
2013-04-27 12:55:00,69.9,38.6,29.99,North,0,0.0,-999.0,13,-99.99,,,0.00,0.0,cwc,2013-04-27 18:55:00,
2013-04-27 13:00:00,70.6,39.3,29.99,NNW,336,4.0,-999.0,13,-99.99,,,0.00,0.0,cwc,2013-04-27 19:00:00,
2013-04-27 13:05:00,70.8,38.8,29.98,WNW,294,4.0,-999.0,11,-99.99,,,0.00,0.0,cwc,2013-04-27 19:05:00,
2013-04-27 13:10:00,70.1,38.4,29.98,North,0,8.0,-999.0,12,-99.99,,,0.00,0.0,cwc,2013-04-27 19:10:00,
2013-04-27 13:15:00,72.1,40.1,29.98,West,277,0.0,-999.0,11,-99.99,,,0.00,0.0,cwc,2013-04-27 19:15:00,
2013-04-27 13:20:00,72.0,40.0,29.97,NW,306,1.0,-999.0,11,-99.99,,,0.00,0.0,cwc,2013-04-27 19:20:00,
2013-04-27 13:25:00,70.9,39.2,29.97,WNW,295,1.0,-999.0,12,-99.99,,,0.00,0.0,cwc,2013-04-27 19:25:00,
2013-04-27 13:30:00,70.8,38.8,29.97,North,359,7.0,-999.0,11,-99.99,,,0.00,0.0,cwc,2013-04-27 19:30:00,
2013-04-27 13:35:00,70.9,38.9,29.96,NW,305,0.0,-999.0,11,-99.99,,,0.00,0.0,cwc,2013-04-27 19:35:00,
2013-04-27 13:40:00,72.7,40.7,29.96,WNW,302,0.0,-999.0,11,-99.99,,,0.00,0.0,cwc,2013-04-27 19:40:00,
2013-04-27 13:45:00,72.5,40.5,29.96,North,3,6.0,-999.0,11,-99.99,,,0.00,0.0,cwc,2013-04-27 19:45:00,
2013-04-27 13:50:00,71.6,39.2,29.95,NE,47,14.0,-999.0,10,-99.99,,,0.00,0.0,cwc,2013-04-27 19:50:00,
2013-04-27 13:55:00,70.1,38.1,29.95,North,1,6.0,-999.0,11,-99.99,,,0.00,0.0,cwc,2013-04-27 19:55:00,
2013-04-27 14:00:00,70.1,38.1,29.95,North,4,6.0,-999.0,11,-99.99,,,0.00,0.0,cwc,2013-04-27 20:00:00,
2013-04-27 14:05:00,69.4,37.4,29.96,NW,306,10.0,-999.0,11,-99.99,,,0.00,0.0,cwc,2013-04-27 20:05:00,
2013-04-27 14:10:00,71.3,38.9,29.96,WNW,299,13.0,-999.0,10,-99.99,,,0.00,0.0,cwc,2013-04-27 20:10:00,
2013-04-27 14:15:00,72.8,39.7,29.96,WNW,289,8.0,-999.0,8,-99.99,,,0.00,0.0,cwc,2013-04-27 20:15:00,
2013-04-27 14:20:00,72.0,39.2,29.95,WNW,298,7.0,-999.0,9,-99.99,,,0.00,0.0,cwc,2013-04-27 20:20:00,
2013-04-27 14:25:00,73.3,40.5,29.95,WNW,299,8.0,-999.0,9,-99.99,,,0.00,0.0,cwc,2013-04-27 20:25:00,
2013-04-27 14:30:00,73.2,40.1,29.95,NE,48,1.0,-999.0,8,-99.99,,,0.00,0.0,cwc,2013-04-27 20:30:00,
2013-04-27 14:35:00,72.7,39.9,29.93,NNW,329,2.0,-999.0,9,-99.99,,,0.00,0.0,cwc,2013-04-27 20:35:00,
2013-04-27 14:40:00,72.8,40.4,29.93,North,352,6.0,-999.0,10,-99.99,,,0.00,0.0,cwc,2013-04-27 20:40:00,
2013-04-27 14:45:00,71.8,39.0,29.93,NW,313,0.0,-999.0,9,-99.99,,,0.00,0.0,cwc,2013-04-27 20:45:00,
2013-04-27 14:50:00,72.0,39.2,29.93,NW,319,6.0,-999.0,9,-99.99,,,0.00,0.0,cwc,2013-04-27 20:50:00,
2013-04-27 14:55:00,72.8,40.0,29.93,SSW,213,15.0,-999.0,9,-99.99,,,0.00,0.0,cwc,2013-04-27 20:55:00,
2013-04-27 15:00:00,72.3,38.8,29.93,WNW,291,7.0,-999.0,7,-99.99,,,0.00,0.0,cwc,2013-04-27 21:00:00,
2013-04-27 15:05:00,72.3,39.2,29.93,NW,313,4.0,-999.0,8,-99.99,,,0.00,0.0,cwc,2013-04-27 21:05:00,
2013-04-27 15:10:00,74.2,41.1,29.93,NW,326,8.0,-999.0,8,-99.99,,,0.00,0.0,cwc,2013-04-27 21:10:00,
2013-04-27 15:15:00,74.6,41.5,29.93,West,281,7.0,-999.0,8,-99.99,,,0.00,0.0,cwc,2013-04-27 21:15:00,
2013-04-27 15:20:00,75.4,42.3,29.91,WSW,240,7.0,-999.0,8,-99.99,,,0.00,0.0,cwc,2013-04-27 21:20:00,
2013-04-27 15:25:00,75.1,42.0,29.91,WSW,258,9.0,-999.0,8,-99.99,,,0.00,0.0,cwc,2013-04-27 21:25:00,
2013-04-27 15:30:00,74.7,41.6,29.91,WNW,294,4.0,-999.0,8,-99.99,,,0.00,0.0,cwc,2013-04-27 21:30:00,
2013-04-27 15:35:00,75.1,42.0,29.90,WSW,239,8.0,-999.0,8,-99.99,,,0.00,0.0,cwc,2013-04-27 21:35:00,
2013-04-27 15:40:00,75.4,42.3,29.90,South,179,0.0,-999.0,8,-99.99,,,0.00,0.0,cwc,2013-04-27 21:40:00,
2013-04-27 15:45:00,75.4,41.9,29.90,SSW,206,16.0,-999.0,7,-99.99,,,0.00,0.0,cwc,2013-04-27 21:45:00,
2013-04-27 15:50:00,74.7,41.6,29.89,WNW,294,10.0,-999.0,8,-99.99,,,0.00,0.0,cwc,2013-04-27 21:50:00,
2013-04-27 15:55:00,74.4,41.3,29.89,WNW,289,4.0,-999.0,8,-99.99,,,0.00,0.0,cwc,2013-04-27 21:55:00,
2013-04-27 16:00:00,73.9,41.1,29.89,WSW,253,10.0,-999.0,9,-99.99,,,0.00,0.0,cwc,2013-04-27 22:00:00,
2013-04-27 16:05:00,75.1,42.3,29.88,WNW,295,8.0,-999.0,9,-99.99,,,0.00,0.0,cwc,2013-04-27 22:05:00,
2013-04-27 16:10:00,74.0,41.2,29.88,WSW,247,8.0,-999.0,9,-99.99,,,0.00,0.0,cwc,2013-04-27 22:10:00,
2013-04-27 16:15:00,74.0,40.9,29.88,SW,232,10.0,-999.0,8,-99.99,,,0.00,0.0,cwc,2013-04-27 22:15:00,
2013-04-27 16:20:00,74.2,41.1,29.90,SE,145,9.0,-999.0,8,-99.99,,,0.00,0.0,cwc,2013-04-27 22:20:00,
2013-04-27 16:25:00,74.0,40.9,29.90,South,191,13.0,-999.0,8,-99.99,,,0.00,0.0,cwc,2013-04-27 22:25:00,
2013-04-27 16:30:00,73.7,40.6,29.90,South,182,13.0,-999.0,8,-99.99,,,0.00,0.0,cwc,2013-04-27 22:30:00,
2013-04-27 16:35:00,74.0,40.9,29.90,WSW,256,9.0,-999.0,8,-99.99,,,0.00,0.0,cwc,2013-04-27 22:35:00,
2013-04-27 16:40:00,73.5,40.4,29.90,WSW,241,14.0,-999.0,8,-99.99,,,0.00,0.0,cwc,2013-04-27 22:40:00,
2013-04-27 16:45:00,74.2,41.4,29.90,NW,308,9.0,-999.0,9,-99.99,,,0.00,0.0,cwc,2013-04-27 22:45:00,
2013-04-27 16:50:00,74.2,41.1,29.89,SW,223,9.0,-999.0,8,-99.99,,,0.00,0.0,cwc,2013-04-27 22:50:00,
2013-04-27 16:55:00,73.7,40.9,29.89,South,188,9.0,-999.0,9,-99.99,,,0.00,0.0,cwc,2013-04-27 22:55:00,
2013-04-27 17:00:00,73.7,41.3,29.89,WSW,250,17.0,-999.0,10,-99.99,,,0.00,0.0,cwc,2013-04-27 23:00:00,
2013-04-27 17:05:00,73.3,40.9,29.89,WSW,248,10.0,-999.0,10,-99.99,,,0.00,0.0,cwc,2013-04-27 23:05:00,
2013-04-27 17:10:00,73.7,40.9,29.89,West,265,8.0,-999.0,9,-99.99,,,0.00,0.0,cwc,2013-04-27 23:10:00,
2013-04-27 17:15:00,74.2,41.4,29.89,SSW,213,8.0,-999.0,9,-99.99,,,0.00,0.0,cwc,2013-04-27 23:15:00,
2013-04-27 17:20:00,74.9,42.5,29.89,West,263,8.0,-999.0,10,-99.99,,,0.00,0.0,cwc,2013-04-27 23:20:00,
2013-04-27 17:25:00,74.4,41.3,29.89,West,268,6.0,-999.0,8,-99.99,,,0.00,0.0,cwc,2013-04-27 23:25:00,
2013-04-27 17:30:00,74.0,40.9,29.89,NW,309,9.0,-999.0,8,-99.99,,,0.00,0.0,cwc,2013-04-27 23:30:00,
2013-04-27 17:35:00,73.2,40.4,29.90,NW,320,16.0,-999.0,9,-99.99,,,0.00,0.0,cwc,2013-04-27 23:35:00,
2013-04-27 17:40:00,73.2,40.4,29.90,West,275,10.0,-999.0,9,-99.99,,,0.00,0.0,cwc,2013-04-27 23:40:00,
2013-04-27 17:45:00,73.9,41.1,29.90,NW,325,6.0,-999.0,9,-99.99,,,0.00,0.0,cwc,2013-04-27 23:45:00,
2013-04-27 17:50:00,73.7,40.9,29.90,WNW,298,2.0,-999.0,9,-99.99,,,0.00,0.0,cwc,2013-04-27 23:50:00,
2013-04-27 17:55:00,73.0,40.2,29.90,NW,309,4.0,-999.0,9,-99.99,,,0.00,0.0,cwc,2013-04-27 23:55:00,
2013-04-27 18:00:00,72.7,39.9,29.90,NW,309,0.0,-999.0,9,-99.99,,,0.00,0.0,cwc,2013-04-28 00:00:00,
2013-04-27 18:05:00,72.1,39.3,29.91,NW,309,0.0,-999.0,9,-99.99,,,0.00,0.0,cwc,2013-04-28 00:05:00,
2013-04-27 18:10:00,71.1,38.3,29.91,WNW,302,0.0,-999.0,9,-99.99,,,0.00,0.0,cwc,2013-04-28 00:10:00,
2013-04-27 18:15:00,70.6,37.8,29.91,WNW,302,0.0,-999.0,9,-99.99,,,0.00,0.0,cwc,2013-04-28 00:15:00,
2013-04-27 18:20:00,70.8,38.4,29.90,WNW,296,2.0,-999.0,10,-99.99,,,0.00,0.0,cwc,2013-04-28 00:20:00,
2013-04-27 18:25:00,70.4,37.6,29.90,South,186,6.0,-999.0,9,-99.99,,,0.00,0.0,cwc,2013-04-28 00:25:00,
2013-04-27 18:30:00,70.3,37.9,29.90,South,186,0.0,-999.0,10,-99.99,,,0.00,0.0,cwc,2013-04-28 00:30:00,
2013-04-27 18:35:00,70.1,37.3,29.91,South,186,0.0,-999.0,9,-99.99,,,0.00,0.0,cwc,2013-04-28 00:35:00,
2013-04-27 18:40:00,69.8,37.4,29.91,South,186,0.0,-999.0,10,-99.99,,,0.00,0.0,cwc,2013-04-28 00:40:00,
2013-04-27 18:45:00,69.6,37.2,29.91,East,99,0.0,-999.0,10,-99.99,,,0.00,0.0,cwc,2013-04-28 00:45:00,
2013-04-27 18:50:00,69.8,37.4,29.91,East,99,0.0,-999.0,10,-99.99,,,0.00,0.0,cwc,2013-04-28 00:50:00,
2013-04-27 18:55:00,69.8,37.4,29.91,East,99,0.0,-999.0,10,-99.99,,,0.00,0.0,cwc,2013-04-28 00:55:00,
2013-04-27 19:00:00,69.6,37.2,29.91,East,99,0.0,-999.0,10,-99.99,,,0.00,0.0,cwc,2013-04-28 01:00:00,
2013-04-27 19:05:00,69.6,37.2,29.90,East,99,0.0,-999.0,10,-99.99,,,0.00,0.0,cwc,2013-04-28 01:05:00,
2013-04-27 19:10:00,69.3,36.9,29.90,East,99,0.0,-999.0,10,-99.99,,,0.00,0.0,cwc,2013-04-28 01:10:00,
2013-04-27 19:15:00,68.6,36.2,29.90,East,99,0.0,-999.0,10,-99.99,,,0.00,0.0,cwc,2013-04-28 01:15:00,
2013-04-27 19:20:00,68.4,36.0,29.85,East,99,0.0,-999.0,10,-99.99,,,0.00,0.0,cwc,2013-04-28 01:20:00,
2013-04-27 19:25:00,68.1,36.1,29.85,East,99,0.0,-999.0,11,-99.99,,,0.00,0.0,cwc,2013-04-28 01:25:00,
2013-04-27 19:30:00,67.6,35.6,29.85,East,99,0.0,-999.0,11,-99.99,,,0.00,0.0,cwc,2013-04-28 01:30:00,
2013-04-27 19:35:00,67.1,35.1,29.86,East,99,0.0,-999.0,11,-99.99,,,0.00,0.0,cwc,2013-04-28 01:35:00,
2013-04-27 19:40:00,66.6,34.9,29.86,East,99,0.0,-999.0,12,-99.99,,,0.00,0.0,cwc,2013-04-28 01:40:00,
2013-04-27 19:45:00,66.3,34.3,29.86,East,99,0.0,-999.0,11,-99.99,,,0.00,0.0,cwc,2013-04-28 01:45:00,
2013-04-27 19:50:00,65.5,33.5,29.88,East,99,0.0,-999.0,11,-99.99,,,0.00,0.0,cwc,2013-04-28 01:50:00,
2013-04-27 19:55:00,64.3,32.6,29.88,East,99,0.0,-999.0,12,-99.99,,,0.00,0.0,cwc,2013-04-28 01:55:00,
2013-04-27 20:00:00,62.7,31.0,29.88,East,99,2.0,-999.0,12,-99.99,,,0.00,0.0,cwc,2013-04-28 02:00:00,
2013-04-27 20:05:00,61.8,30.5,29.89,East,99,0.0,-999.0,13,-99.99,,,0.00,0.0,cwc,2013-04-28 02:05:00,
2013-04-27 20:10:00,61.5,30.2,29.89,East,99,0.0,-999.0,13,-99.99,,,0.00,0.0,cwc,2013-04-28 02:10:00,
2013-04-27 20:15:00,61.0,29.7,29.89,East,99,0.0,-999.0,13,-99.99,,,0.00,0.0,cwc,2013-04-28 02:15:00,
2013-04-27 20:20:00,59.6,28.6,29.86,East,99,0.0,-999.0,14,-99.99,,,0.00,0.0,cwc,2013-04-28 02:20:00,
2013-04-27 20:25:00,58.9,27.9,29.86,East,99,0.0,-999.0,14,-99.99,,,0.00,0.0,cwc,2013-04-28 02:25:00,
2013-04-27 20:30:00,58.6,27.6,29.86,East,99,0.0,-999.0,14,-99.99,,,0.00,0.0,cwc,2013-04-28 02:30:00,
2013-04-27 20:35:00,58.0,27.4,29.88,East,99,0.0,-999.0,15,-99.99,,,0.00,0.0,cwc,2013-04-28 02:35:00,
2013-04-27 20:40:00,57.6,27.0,29.88,East,100,4.0,-999.0,15,-99.99,,,0.00,0.0,cwc,2013-04-28 02:40:00,
2013-04-27 20:45:00,57.3,26.7,29.88,East,100,0.0,-999.0,15,-99.99,,,0.00,0.0,cwc,2013-04-28 02:45:00,
2013-04-27 20:50:00,57.0,26.8,29.89,East,100,0.0,-999.0,16,-99.99,,,0.00,0.0,cwc,2013-04-28 02:50:00,
2013-04-27 20:55:00,57.0,26.4,29.89,East,100,0.0,-999.0,15,-99.99,,,0.00,0.0,cwc,2013-04-28 02:55:00,
2013-04-27 21:00:00,56.6,26.4,29.89,East,100,1.0,-999.0,16,-99.99,,,0.00,0.0,cwc,2013-04-28 03:00:00,
2013-04-27 21:05:00,56.6,26.4,29.90,East,100,0.0,-999.0,16,-99.99,,,0.00,0.0,cwc,2013-04-28 03:05:00,
2013-04-27 21:10:00,56.3,26.1,29.90,East,100,0.0,-999.0,16,-99.99,,,0.00,0.0,cwc,2013-04-28 03:10:00,
2013-04-27 21:15:00,56.0,26.5,29.90,East,100,0.0,-999.0,18,-99.99,,,0.00,0.0,cwc,2013-04-28 03:15:00,
2013-04-27 21:20:00,55.4,25.9,29.87,East,100,2.0,-999.0,18,-99.99,,,0.00,0.0,cwc,2013-04-28 03:20:00,
2013-04-27 21:25:00,55.7,26.5,29.87,East,92,6.0,-999.0,19,-99.99,,,0.00,0.0,cwc,2013-04-28 03:25:00,
2013-04-27 21:30:00,55.7,26.5,29.87,East,92,0.0,-999.0,19,-99.99,,,0.00,0.0,cwc,2013-04-28 03:30:00,
2013-04-27 21:35:00,55.6,26.1,29.87,East,92,0.0,-999.0,18,-99.99,,,0.00,0.0,cwc,2013-04-28 03:35:00,
2013-04-27 21:40:00,55.4,26.2,29.87,East,92,0.0,-999.0,19,-99.99,,,0.00,0.0,cwc,2013-04-28 03:40:00,
2013-04-27 21:45:00,55.3,26.5,29.87,East,92,0.0,-999.0,20,-99.99,,,0.00,0.0,cwc,2013-04-28 03:45:00,
2013-04-27 21:50:00,55.1,26.3,29.88,East,92,0.0,-999.0,20,-99.99,,,0.00,0.0,cwc,2013-04-28 03:50:00,
2013-04-27 21:55:00,54.7,25.9,29.88,East,92,0.0,-999.0,20,-99.99,,,0.00,0.0,cwc,2013-04-28 03:55:00,
2013-04-27 22:00:00,54.4,25.6,29.88,East,92,0.0,-999.0,20,-99.99,,,0.00,0.0,cwc,2013-04-28 04:00:00,
2013-04-27 22:05:00,54.2,25.8,29.90,East,92,0.0,-999.0,21,-99.99,,,0.00,0.0,cwc,2013-04-28 04:05:00,
2013-04-27 22:10:00,53.9,25.5,29.90,East,92,0.0,-999.0,21,-99.99,,,0.00,0.0,cwc,2013-04-28 04:10:00,
2013-04-27 22:15:00,53.8,25.4,29.90,East,95,1.0,-999.0,21,-99.99,,,0.00,0.0,cwc,2013-04-28 04:15:00,
2013-04-27 22:20:00,53.6,25.5,29.86,East,95,0.0,-999.0,22,-99.99,,,0.00,0.0,cwc,2013-04-28 04:20:00,
2013-04-27 22:25:00,53.5,25.4,29.86,East,95,0.0,-999.0,22,-99.99,,,0.00,0.0,cwc,2013-04-28 04:25:00,
2013-04-27 22:30:00,52.9,25.2,29.86,East,95,0.0,-999.0,23,-99.99,,,0.00,0.0,cwc,2013-04-28 04:30:00,
2013-04-27 22:35:00,52.6,24.9,29.86,East,95,0.0,-999.0,23,-99.99,,,0.00,0.0,cwc,2013-04-28 04:35:00,
2013-04-27 22:40:00,52.6,24.9,29.86,East,95,0.0,-999.0,23,-99.99,,,0.00,0.0,cwc,2013-04-28 04:40:00,
2013-04-27 22:45:00,52.3,24.6,29.86,East,95,0.0,-999.0,23,-99.99,,,0.00,0.0,cwc,2013-04-28 04:45:00,
2013-04-27 22:50:00,52.0,24.3,29.88,East,95,0.0,-999.0,23,-99.99,,,0.00,0.0,cwc,2013-04-28 04:50:00,
2013-04-27 22:55:00,51.6,23.9,29.88,East,95,0.0,-999.0,23,-99.99,,,0.00,0.0,cwc,2013-04-28 04:55:00,
2013-04-27 23:00:00,51.4,24.0,29.88,East,95,0.0,-999.0,24,-99.99,,,0.00,0.0,cwc,2013-04-28 05:00:00,
2013-04-27 23:05:00,50.7,23.7,29.88,East,95,0.0,-999.0,25,-99.99,,,0.00,0.0,cwc,2013-04-28 05:05:00,
2013-04-27 23:10:00,50.4,23.4,29.88,East,95,0.0,-999.0,25,-99.99,,,0.00,0.0,cwc,2013-04-28 05:10:00,
2013-04-27 23:15:00,50.1,23.1,29.88,East,95,0.0,-999.0,25,-99.99,,,0.00,0.0,cwc,2013-04-28 05:15:00,
2013-04-27 23:20:00,49.5,21.8,29.88,East,95,0.0,-999.0,23,-99.99,,,0.00,0.0,cwc,2013-04-28 05:20:00,
2013-04-27 23:25:00,48.8,21.1,29.88,East,95,0.0,-999.0,23,-99.99,,,0.00,0.0,cwc,2013-04-28 05:25:00,
2013-04-27 23:30:00,48.3,20.6,29.88,East,95,0.0,-999.0,23,-99.99,,,0.00,0.0,cwc,2013-04-28 05:30:00,
2013-04-27 23:35:00,47.9,20.9,29.89,East,95,0.0,-999.0,25,-99.99,,,0.00,0.0,cwc,2013-04-28 05:35:00,
2013-04-27 23:40:00,47.4,19.7,29.89,East,95,0.0,-999.0,23,-99.99,,,0.00,0.0,cwc,2013-04-28 05:40:00,
2013-04-27 23:45:00,46.8,19.1,29.89,East,95,0.0,-999.0,23,-99.99,,,0.00,0.0,cwc,2013-04-28 05:45:00,
2013-04-27 23:50:00,46.4,19.0,29.91,East,95,0.0,-999.0,24,-99.99,,,0.00,0.0,cwc,2013-04-28 05:50:00,